Powrót do katalogu

STARLINK-11365

AktywnyŁącznośćVLEO
NORAD 62886·PAYLOAD·🇺🇸 United States

Wystrzelony Feb 4, 2025 z Cape Canaveral Space Force Station

Loading…

Następne Przeloty (najbliższe 24 godziny)

TLE

ŚwieżeSource: CelesTrak SupGP

Epoka: Sep 15, 2026, 03:29 UTC

1 62886C 25024H   26258.14562500  .00086910  00000+0  67451-3 0  2586
2 62886  43.0000 119.1705 0001931 267.5819 197.0086 15.70812861    16

Śledź STARLINK-11365 w czasie rzeczywistym z AllMySat

Download on the App Store